This is the latest recevied weather packets stored in our database for station/object I8ZSE-10. If no packets are shown the sender has not sent any weather packets the latest 10 day(s).
| Time | Temp. | Humidity | Pressure | Rain* | Wind** | Luminosity | Snow |
|---|---|---|---|---|---|---|---|
| 1778103009 | 13.89° C | 80% | 1016.3 hPa | 0 mm | - | - | - |
| 1778102408 | 13.89° C | 80% | 1016.4 hPa | 0 mm | - | - | - |
| 1778101808 | 13.89° C | 80% | 1016.4 hPa | 0 mm | - | - | - |
| 1778101209 | 13.89° C | 79% | 1016.5 hPa | 0 mm | - | - | - |
| 1778100609 | 14.44° C | 76% | 1016.7 hPa | 0 mm | - | - | - |
| 1778099409 | 14.44° C | 73% | 1016.4 hPa | 0 mm | - | - | - |
| 1778098808 | 14.44° C | 71% | 1016.3 hPa | 0 mm | - | - | - |
| 1778098208 | 15° C | 68% | 1016.3 hPa | 0 mm | - | - | - |
| 1778097609 | 15.56° C | 64% | 1016.3 hPa | 0 mm | - | - | - |
| 1778097008 | 15.56° C | 62% | 1016.1 hPa | 0 mm | - | - | - |
| 1778096408 | 15.56° C | 62% | 1016 hPa | 0 mm | - | - | - |
| 1778095808 | 15.56° C | 61% | 1015.8 hPa | 0 mm | - | - | - |
| 1778095208 | 15.56° C | 60% | 1015.6 hPa | 0 mm | - | - | - |
| 1778094609 | 16.11° C | 61% | 1015.5 hPa | 0 mm | - | - | - |
| 1778094009 | 15.56° C | 63% | 1015.4 hPa | 0 mm | - | - | - |
| 1778093409 | 15.56° C | 64% | 1015.3 hPa | 0 mm | - | - | - |
| 1778092809 | 16.11° C | 64% | 1015.3 hPa | 0 mm | - | - | - |
| 1778092208 | 16.67° C | 64% | 1015.4 hPa | 0 mm | - | - | - |
| 1778091608 | 16.67° C | 64% | 1015.5 hPa | 0 mm | - | - | - |
| 1778091008 | 16.67° C | 64% | 1015.5 hPa | 0 mm | - | - | - |
| 1778090408 | 17.22° C | 63% | 1015.5 hPa | 0 mm | - | - | - |
| 1778089809 | 17.22° C | 62% | 1015.6 hPa | 0 mm | - | - | - |
| 1778089208 | 17.22° C | 62% | 1015.6 hPa | 0 mm | - | - | - |
| 1778088608 | 17.78° C | 61% | 1015.7 hPa | 0 mm | - | - | - |
| 1778088009 | 17.78° C | 60% | 1015.7 hPa | 0 mm | - | - | - |
* Rain latest hour (hover to see other rain measurements)
** Current wind speed in m/s (hover to see current wind gust speed)